Flag for Greenland Weather past 2 weeks in Ittoqqortoormiit, Greenland

Now
35 °F

Overcast.


Feels Like: 25 °F
Forecast: 28 / 32 °F
Wind: 18 mph from Northeast

Location: Scoresbysund

Current Time: Sep 24, 2014 at 12:54:18 AM

Latest Report: Sep 24, 2014 at 12:00 AM


Visibility: 31 mi

Pressure: 29.78 "Hg

Humidity: 81%

Dew point: 30 °F

Location of IttoqqortoormiitLocation

Historic Weather in Ittoqqortoormiit — Graph

°F

Ittoqqortoormiit temperature yesterday

Maximum temperature yesterday: 38 °F (at 1:00 PM)
Minimum temperature yesterday: 35 °F (at 7:00 PM)
Average temperature yesterday: 36 °F

Past Weeks' High & Low Weather Summary

 TemperatureHumidityPressure
High48 °F (Sep 15, 1:00 PM)100% (Sep 11, 10:00 PM)30.34 "Hg (Sep 11, 10:00 PM)
Low31 °F (Sep 20, 11:00 PM)18% (Sep 13, 5:00 PM)29.12 "Hg (Sep 12, 6:00 PM)
Average38 °F76%29.79 "Hg
* Reported Sep 8 11:00 PM — Sep 23 11:00 PM, Ittoqqortoormiit, Weather by CustomWeather, © 2014

Note: Actual official high and low records may vary slightly from our data, if they occured in-between our weather recording intervals... More about our weather records

Advertising

Ittoqqortoormiit weather history for previous 24 hours

 ConditionsComfort  
Time TempWeatherWind HumidityBarometerVisibility
11:00 PM
Sep 23
36 °FOvercast.16 mph82%29.78 "Hg31 mi
10:00 PM36 °FOvercast.13 mph82%29.77 "Hg31 mi
9:00 PM36 °FOvercast.13 mph86%29.76 "Hg25 mi
8:00 PM36 °FOvercast.13 mph88%29.74 "HgN/A
7:00 PM35 °FLight rain. Low clouds.3 mph97%29.73 "Hg4 mi
6:00 PM36 °FRain showers. Overcast.13 mph88%29.70 "Hg16 mi
5:00 PM37 °FOvercast.15 mph91%29.67 "Hg14 mi
4:00 PM38 °FOvercast.9 mph89%29.65 "Hg28 mi
3:00 PM38 °FOvercast.1 mph93%29.62 "Hg19 mi
2:00 PM38 °FFog.1 mph93%29.60 "Hg28 mi
1:00 PM38 °FDrizzle. Overcast.1 mph92%29.58 "Hg16 mi
12:00 PM38 °FOvercast.2 mph92%29.56 "Hg28 mi
11:00 AM37 °FOvercast.2 mph95%29.53 "Hg22 mi
10:00 AM37 °FOvercast.2 mph96%29.50 "Hg19 mi
9:00 AM36 °FOvercast.2 mph98%29.50 "Hg16 mi
8:00 AM36 °FSprinkles. Overcast.1 mph97%29.47 "Hg9 mi
7:00 AM36 °FDrizzle. Overcast.3 mph97%29.47 "Hg13 mi
6:00 AM36 °FLight rain. Overcast.3 mph98%29.44 "Hg6 mi
5:00 AM36 °FDrizzle. Overcast.2 mph98%29.44 "Hg7 mi
4:00 AM36 °FRain showers. Overcast.6 mph98%29.44 "Hg11 mi
3:00 AM35 °FOvercast.2 mph99%29.44 "Hg6 mi
2:00 AM36 °FOvercast.3 mph98%29.44 "Hg6 mi
1:00 AM35 °FOvercast.6 mph99%29.44 "Hg7 mi
12:00 AM35 °FFog.5 mph99%29.47 "Hg6 mi
Weather by CustomWeather, © 2014

See weather overviewHow to use our weather pages